Temperature
6 6 6 5 6 5 5 6 6 7 8 9 10 9 9 9 8 7 6 6 6 7 8 10 10 10 10 10 9 9 9 8 8 7 7 6 5 5 4 3 3 2 1 1
6 7 6 6 6 6 6 6 7 7 8 9 9 9 8 8 8 7 6 6 6 8 9 9 10 9 9 9 8 8 8 7 7 6 6 5 4 4 3 2 1 1 1 0
7 8 7 7 7 7 7 7 7 7 8 9 9 9 8 8 8 7 6 6 7 8 9 9 9 9 9 8 8 7 7 6 6 5 4 4 3 3 2 1 1 0 0 -0
7 8 9 9 9 9 8 8 9 9 9 9 9 8 8 8 8 8 7 7 7 8 9 9 9 8 8 8 7 6 6 5 4 4 3 3 2 2 1 0 0 -0 -0 -1
7 8 9 10 9 9 8 9 9 9 9 9 8 8 8 8 9 9 8 8 9 9 10 9 8 8 8 7 6 5 5 4 3 3 2 2 1 1 0 -0 -0 -1 -1 -2
7 8 9 10 10 9 9 9 10 9 9 8 8 9 8 7 9 9 9 9 9 9 9 9 8 8 7 6 5 4 4 3 2 2 1 1 0 0 -0 -1 -1 -1 -2 -2
8 8 8 9 8 9 10 11 9 9 9 8 7 8 6 8 9 9 9 9 9 9 9 8 8 7 6 5 4 3 2 2 1 1 1 0 -0 -1 -1 -1 -2 -2 -2 -3
7 8 8 9 8 9 9 9 8 8 9 8 6 5 7 8 8 9 8 8 8 8 8 7 7 6 5 4 3 2 2 1 1 0 -0 -0 -1 -1 -1 -2 -2 -3 -3 -3
7 8 8 8 9 9 8 8 7 7 8 8 6 5 6 6 7 7 8 8 8 8 7 6 5 5 4 3 2 1 1 0 0 -0 -1 -1 -1 -2 -2 -3 -3 -4 -4 -5
7 7 8 9 9 9 9 8 7 8 8 9 8 6 6 6 6 7 7 7 7 7 6 4 3 3 3 2 1 1 0 -0 -1 -1 -1 -2 -2 -2 -3 -3 -4 -5 -6 -7
7 8 8 9 9 9 9 9 8 7 7 8 8 7 7 6 6 6 6 6 6 5 4 3 2 1 1 1 0 -0 -0 -1 -1 -2 -2 -2 -3 -3 -4 -4 -5 -7 -8 -8
8 9 8 8 9 9 10 9 8 8 6 7 8 7 7 6 6 6 5 5 4 4 3 1 1 0 -0 -0 -1 -1 -1 -1 -2 -2 -2 -3 -3 -4 -4 -5 -6 -7 -8 -9
10 10 9 9 8 9 9 8 8 8 8 7 7 8 7 6 5 5 4 3 3 2 2 1 0 -0 -1 -1 -1 -1 -2 -2 -2 -3 -3 -4 -4 -5 -5 -5 -6 -7 -7 -8
10 10 8 8 8 8 9 8 8 8 8 8 7 7 7 6 4 3 3 2 2 1 1 -0 -0 -1 -1 -1 -2 -2 -2 -3 -3 -4 -4 -5 -5 -6 -6 -7 -7 -7 -7 -8
8 9 9 8 8 7 8 8 8 7 7 7 7 6 6 5 3 2 2 1 1 0 -0 -1 -1 -1 -2 -2 -2 -2 -3 -3 -4 -5 -5 -5 -6 -6 -7 -7 -8 -8 -9 -9
8 8 8 8 7 7 7 7 8 7 7 6 6 5 5 4 3 1 1 0 0 -0 -1 -1 -2 -2 -2 -3 -3 -3 -4 -4 -5 -5 -6 -6 -6 -7 -8 -8 -9 -9 -9 -10
7 5 5 5 6 6 7 8 8 7 7 6 5 5 4 3 2 1 -0 -1 -1 -1 -2 -2 -2 -3 -3 -3 -4 -4 -5 -5 -5 -6 -6 -7 -7 -8 -9 -9 -9 -10 -10 -10
10 10 10 10 9 7 7 8 8 7 7 6 5 4 4 3 2 1 -0 -1 -1 -2 -2 -3 -3 -3 -4 -4 -5 -5 -5 -6 -6 -6 -7 -7 -8 -9 -9 -10 -10 -10 -10 -10
9 9 8 8 8 8 7 7 7 7 6 5 5 4 3 2 1 0 -1 -1 -2 -2 -3 -3 -4 -4 -4 -5 -5 -6 -6 -6 -6 -7 -8 -8 -9 -9 -10 -10 -11 -11 -11 -10
8 8 7 6 7 7 7 7 7 6 5 4 4 3 2 1 0 -1 -1 -2 -3 -3 -3 -4 -4 -5 -5 -6 -6 -6 -6 -7 -7 -8 -8 -9 -9 -10 -10 -11 -11 -11 -11 -11
7 6 5 6 6 7 7 6 6 5 4 3 3 2 1 -0 -1 -1 -2 -2 -3 -4 -4 -5 -5 -5 -6 -6 -6 -6 -7 -7 -8 -9 -9 -10 -10 -10 -11 -11 -11 -11 -11 -11
5 4 4 5 6 6 6 5 5 4 3 2 2 1 1 -1 -2 -2 -3 -3 -4 -4 -5 -5 -5 -6 -6 -6 -6 -7 -7 -8 -9 -9 -10 -10 -11 -11 -11 -11 -11 -11 -11 -11
3 3 4 5 6 5 5 4 4 3 2 2 1 0 -0 -1 -2 -3 -3 -4 -5 -5 -5 -6 -6 -6 -6 -7 -7 -8 -8 -9 -10 -10 -10 -11 -11 -11 -11 -11 -11 -11 -11 -11
3 3 4 5 5 5 4 3 2 2 1 0 -0 -1 -1 -2 -3 -4 -4 -5 -5 -5 -6 -6 -6 -6 -7 -7 -8 -8 -9 -10 -10 -10 -10 -11 -11 -11 -11 -11 -11 -11 -11 -11
3 3 4 4 4 4 3 2 1 0 -0 -1 -2 -3 -3 -3 -3 -4 -5 -5 -5 -6 -6 -6 -7 -7 -7 -8 -9 -9 -10 -10 -10 -10 -11 -11 -11 -11 -11 -11 -12 -11 -11 -11
2 3 3 4 4 4 2 1 0 -1 -1 -2 -3 -3 -4 -4 -5 -5 -5 -5 -6 -6 -6 -7 -7 -8 -8 -9 -9 -10 -10 -10 -10 -11 -11 -11 -11 -11 -12 -12 -12 -12 -12 -11
1 2 3 3 3 2 1 1 0 -1 -1 -1 -2 -4 -4 -5 -5 -5 -6 -6 -6 -6 -7 -7 -8 -9 -9 -9 -10 -10 -10 -10 -11 -11 -11 -11 -12 -12 -12 -12 -12 -12 -12 -12
Wind_Speed
22 23 19 19 18 20 24 22 16 15 19 20 12 12 10 6 4 9 11 13 14 13 12 13 14 13 13 13 12 14 14 13 11 10 10 9 8 8 8 7 6 5 4 3
19 21 21 21 21 21 23 23 24 19 19 12 8 8 7 5 8 12 13 13 13 14 14 14 14 15 14 13 12 13 14 12 11 10 9 9 8 8 7 6 5 4 4 4
11 13 9 8 12 17 15 16 17 21 20 11 10 9 6 6 9 11 12 13 14 14 14 14 14 15 15 13 13 13 13 11 10 10 9 8 8 7 7 5 3 4 4 4
7 8 5 6 5 7 11 13 15 14 12 9 7 4 2 3 7 10 12 13 13 13 13 12 12 14 14 13 13 13 12 10 9 9 9 8 7 7 5 3 3 3 3 5
5 6 7 6 2 4 5 6 13 17 14 7 2 2 1 2 3 8 10 11 12 12 14 14 14 15 16 13 12 12 11 10 9 9 9 7 7 5 3 3 3 2 3 5
4 5 4 5 3 3 3 5 7 13 13 8 3 2 2 5 5 9 12 13 14 14 15 14 13 15 16 14 12 11 10 9 9 8 8 7 6 4 3 2 2 4 5 5
5 4 6 6 3 4 2 5 4 7 9 7 5 1 4 6 9 11 13 15 15 15 13 13 13 15 15 13 11 10 11 10 9 8 8 7 5 3 3 3 4 5 6 6
3 3 6 4 2 2 5 4 4 1 4 7 8 9 9 10 11 13 14 14 15 15 13 10 11 15 15 11 10 11 12 11 9 7 6 6 6 4 3 4 4 5 5 7
7 7 5 3 4 4 3 3 2 3 6 12 10 9 10 10 11 11 13 13 12 16 15 10 9 13 16 10 11 12 11 9 8 7 6 5 5 4 3 3 3 5 5 6
5 7 6 5 3 2 4 3 4 7 9 9 12 13 13 12 11 12 12 12 13 15 15 11 10 12 13 11 11 12 10 8 7 6 5 4 3 3 2 3 4 5 6 6
5 7 6 3 1 3 6 9 12 12 11 13 18 15 14 13 12 11 12 10 11 14 14 13 12 12 10 10 11 11 9 7 6 5 4 3 3 2 3 3 5 7 5 5
6 6 4 2 4 6 8 9 12 16 14 10 13 17 15 13 11 12 12 12 13 14 15 12 12 11 8 8 9 10 8 6 4 3 3 3 3 4 6 7 11 12 13 13
3 2 3 5 6 6 7 9 11 12 14 14 11 13 15 12 10 11 12 13 14 13 13 12 11 10 8 8 8 8 7 5 4 3 3 2 3 4 5 7 9 12 14 16
5 6 5 4 5 8 11 13 13 14 12 13 12 12 13 13 12 12 11 11 12 13 12 11 11 9 6 7 8 8 7 6 4 3 2 2 3 4 4 6 8 8 11 16
3 3 6 9 11 12 12 14 16 14 13 12 11 12 13 14 12 11 10 11 12 12 10 10 10 7 6 7 8 7 5 4 3 2 2 3 4 4 4 6 7 8 7 10
6 8 10 13 14 13 13 14 16 13 12 12 12 12 12 13 12 11 9 10 11 11 9 9 8 6 6 7 7 6 4 5 3 2 2 3 4 4 5 6 7 7 8 9
10 10 10 12 13 13 11 11 14 15 13 14 13 14 14 14 13 11 9 8 10 9 8 8 7 6 7 7 6 4 3 3 4 3 3 4 4 4 5 6 7 7 8 11
6 8 12 17 18 16 13 12 14 15 13 13 15 14 14 13 13 11 10 11 11 10 8 7 7 7 7 6 5 3 2 2 2 3 3 4 5 4 6 7 8 9 9 11
6 9 11 12 13 14 14 14 13 13 14 14 14 13 12 12 12 11 10 11 11 8 5 6 10 8 6 5 4 3 2 2 3 3 3 6 6 6 6 6 7 8 10 10
8 11 14 14 13 15 16 15 15 15 13 14 15 15 13 11 11 11 10 8 5 5 6 7 7 6 4 4 4 2 2 2 3 3 4 4 5 6 6 8 8 9 10 9
11 14 16 16 15 13 15 16 16 16 13 12 14 14 13 11 9 9 10 7 4 5 7 8 5 3 3 3 4 2 2 3 3 4 4 5 6 6 7 8 9 10 9 10
11 14 16 17 17 15 12 13 15 16 14 14 14 14 13 11 10 9 8 5 5 8 6 4 3 4 5 4 3 2 3 3 4 4 5 5 6 7 8 8 8 9 9 9
12 14 16 16 18 17 15 13 14 14 14 13 13 13 11 9 7 7 6 4 4 8 5 3 4 6 5 3 2 3 4 4 5 5 5 6 6 6 8 9 8 9 9 9
15 15 15 16 17 19 16 13 13 12 13 12 11 11 11 9 6 5 5 9 9 8 5 5 6 5 5 3 3 3 4 5 5 6 6 5 6 6 7 8 8 9 9 10
14 16 17 17 16 14 15 15 15 14 14 11 11 9 7 5 6 6 6 7 9 7 5 5 6 6 4 3 4 4 4 5 6 6 5 6 6 7 7 8 8 9 9 9
13 12 11 11 12 13 13 12 11 10 11 11 8 7 7 8 8 7 6 6 7 6 4 3 4 5 4 4 5 5 5 6 7 7 7 7 7 8 8 8 10 9 9 10
12 12 12 12 11 10 11 11 12 11 10 11 9 7 7 7 7 6 6 5 4 3 3 3 4 4 4 5 5 5 5 6 6 7 7 7 7 7 8 9 9 9 10 10
Wind_Direction
257 262 261 255 244 226 223 227 237 251 258 269 281 291 292 290 195 155 149 148 146 142 137 132 128 126 127 126 125 124 120 118 118 117 115 113 109 106 101 95 92 88 73 38
278 274 267 259 250 238 230 229 235 254 267 272 286 289 287 269 195 172 163 156 148 143 141 139 136 134 131 128 126 123 121 122 124 121 117 113 110 106 100 92 85 69 47 16
290 300 290 266 248 226 223 223 225 239 249 264 281 284 277 238 198 179 166 158 154 152 149 144 142 140 136 131 125 121 122 126 127 123 117 113 112 104 98 93 75 51 21 353
290 308 318 301 290 201 212 222 216 233 252 255 266 281 274 241 185 167 160 156 150 145 137 133 130 130 126 125 124 123 125 126 125 120 115 111 105 100 97 87 61 34 346 333
292 310 307 321 355 158 180 234 217 228 243 249 257 303 344 13 168 154 148 142 137 134 134 133 134 132 126 122 122 124 126 126 123 120 117 111 106 101 91 69 39 353 328 331
294 314 323 317 326 146 132 292 226 211 227 224 175 288 330 19 71 109 116 121 123 124 126 128 131 130 126 127 125 127 126 120 115 114 115 113 109 98 77 63 11 340 330 321
253 277 282 290 298 117 137 287 317 206 207 179 179 170 76 60 71 92 105 113 119 121 124 129 131 127 124 123 122 121 116 110 106 107 110 110 100 88 70 41 6 345 323 313
204 246 277 319 56 179 250 307 335 195 152 127 110 92 83 81 86 97 104 108 114 114 113 114 123 123 118 115 115 114 111 107 103 100 101 100 93 78 58 29 356 333 320 315
203 226 260 281 256 286 296 301 338 111 120 125 115 106 100 94 95 97 103 106 109 114 109 98 102 118 117 117 117 112 107 105 103 95 84 83 81 62 34 7 342 320 311 306
267 269 267 270 279 342 8 31 75 106 118 119 118 118 112 108 103 101 102 107 113 111 107 96 88 99 113 117 114 112 109 106 103 98 87 70 56 33 11 338 318 306 302 307
268 277 290 286 150 86 81 87 89 84 91 114 119 117 115 111 107 107 105 101 102 106 105 101 100 100 105 111 113 109 105 102 98 93 89 61 29 350 325 283 277 305 300 304
229 241 207 249 127 124 115 108 111 110 99 94 114 119 115 110 109 108 104 102 101 101 105 105 104 101 99 105 111 112 109 104 99 90 71 47 4 332 320 315 320 325 327 326
215 99 113 106 106 108 111 113 111 110 117 113 107 114 114 108 104 102 101 103 106 110 111 109 104 98 96 102 104 105 109 106 90 72 50 14 344 324 318 320 321 328 332 332
154 130 130 147 134 119 117 112 104 98 100 107 110 108 107 106 103 101 103 107 111 111 109 106 102 96 98 101 98 95 90 83 82 63 23 337 311 300 298 311 321 321 328 330
155 162 146 129 119 120 121 121 114 110 107 101 102 107 110 111 107 104 107 111 109 105 105 106 104 99 95 94 93 89 84 74 70 38 344 311 300 297 298 306 311 312 315 323
103 97 119 130 135 136 135 133 127 124 120 114 108 104 104 107 107 106 107 114 115 115 115 110 105 102 95 92 92 81 63 49 52 8 324 310 305 306 310 313 315 316 319 323
134 141 146 149 151 150 147 142 136 132 125 120 118 116 112 108 103 98 90 89 100 105 107 109 105 97 90 91 90 82 61 18 5 354 325 314 309 311 315 315 314 316 315 317
178 171 170 164 158 150 135 126 126 125 122 125 124 119 116 115 114 111 108 102 95 83 79 93 100 94 92 95 92 83 54 360 339 326 321 316 318 322 318 316 316 314 312 313
143 142 139 140 140 135 130 126 121 118 122 124 119 112 108 109 114 115 111 106 106 101 91 100 104 91 86 93 95 61 38 3 347 338 330 329 330 321 319 315 312 311 311 313
121 126 125 122 122 127 126 123 120 119 120 119 114 110 107 108 113 110 99 86 79 104 109 102 96 92 84 73 85 56 28 2 345 332 323 318 318 315 315 315 314 311 310 311
124 125 124 121 116 115 122 125 124 122 119 116 117 117 115 111 108 107 104 95 71 93 102 106 97 98 96 85 69 47 18 354 338 325 318 314 312 309 308 309 310 310 309 311
123 124 122 121 117 112 110 114 117 117 113 109 111 115 115 110 100 88 80 101 115 112 97 88 85 100 98 77 51 23 358 340 326 315 308 303 302 304 306 306 307 308 308 309
123 124 123 123 120 114 106 105 109 113 115 118 121 121 117 112 108 113 108 101 103 107 95 79 92 88 71 55 24 358 339 326 315 307 300 294 291 294 301 304 305 306 307 307
126 124 122 121 119 114 109 104 102 104 104 104 107 114 117 109 83 69 106 121 114 99 73 72 70 59 43 27 354 333 320 310 301 294 292 292 293 295 299 302 303 304 303 303
125 126 128 127 121 118 118 114 107 104 101 99 93 85 81 93 111 105 92 97 104 92 60 42 37 28 20 346 328 315 305 297 294 298 304 304 299 300 301 300 299 301 301 300
126 125 120 116 122 126 127 123 119 118 117 111 99 88 91 93 97 94 87 83 86 88 69 32 9 1 344 325 312 305 300 305 312 310 299 297 297 298 299 299 299 299 298 297
111 113 112 109 110 116 120 122 124 125 126 123 115 106 104 101 96 93 90 83 73 58 35 10 352 335 320 311 306 303 301 300 300 299 297 293 292 292 295 295 297 297 297 296
Height
1406 1401 1401 1397 1395 1397 1398 1394 1394 1383 1380 1373 1375 1375 1374 1372 1370 1370 1371 1373 1377 1383 1389 1397 1405 1413 1421 1427 1434 1440 1446 1451 1455 1458 1462 1464 1466 1467 1468 1468 1467 1467 1466 1465
1396 1388 1386 1384 1382 1383 1384 1385 1384 1381 1376 1369 1371 1371 1370 1368 1368 1369 1371 1375 1379 1385 1391 1398 1406 1413 1421 1427 1434 1440 1445 1450 1454 1457 1460 1462 1463 1464 1464 1464 1464 1464 1463 1461
1389 1379 1376 1371 1366 1368 1372 1373 1377 1377 1369 1367 1369 1369 1368 1367 1366 1367 1371 1375 1380 1386 1393 1400 1408 1415 1421 1428 1434 1440 1445 1449 1453 1455 1458 1459 1461 1461 1462 1462 1462 1461 1459 1457
1390 1380 1369 1366 1358 1359 1363 1365 1367 1365 1362 1365 1366 1367 1366 1365 1366 1368 1372 1377 1382 1388 1395 1403 1410 1417 1424 1429 1435 1440 1445 1448 1451 1454 1456 1457 1458 1459 1460 1460 1459 1458 1456 1453
1389 1379 1371 1362 1359 1359 1362 1362 1359 1360 1360 1363 1365 1366 1365 1365 1366 1370 1374 1378 1384 1390 1397 1404 1411 1418 1424 1430 1435 1440 1444 1447 1450 1452 1454 1456 1457 1458 1458 1457 1456 1454 1452 1449
1391 1383 1376 1366 1360 1358 1362 1360 1352 1354 1357 1360 1365 1367 1366 1365 1367 1371 1376 1381 1386 1393 1400 1406 1413 1419 1425 1430 1435 1440 1443 1446 1449 1451 1453 1455 1456 1456 1455 1454 1453 1451 1448 1445
1390 1386 1377 1366 1362 1362 1366 1360 1353 1352 1354 1360 1364 1366 1368 1367 1370 1374 1378 1384 1389 1395 1402 1408 1415 1421 1426 1431 1436 1440 1443 1446 1449 1451 1453 1454 1454 1453 1453 1451 1449 1447 1444 1441
1388 1385 1380 1365 1364 1365 1362 1356 1354 1353 1355 1359 1363 1366 1368 1371 1374 1378 1382 1387 1392 1398 1404 1411 1418 1423 1428 1432 1436 1440 1443 1446 1449 1451 1452 1452 1452 1451 1450 1448 1445 1442 1439 1436
1382 1378 1368 1365 1365 1362 1360 1357 1355 1354 1356 1359 1364 1368 1372 1375 1379 1383 1387 1391 1397 1402 1408 1415 1421 1426 1429 1433 1437 1440 1444 1446 1448 1449 1450 1450 1450 1449 1447 1444 1441 1438 1434 1430
1376 1370 1366 1364 1363 1361 1359 1357 1356 1356 1358 1362 1365 1371 1376 1380 1384 1388 1393 1397 1402 1407 1412 1418 1424 1429 1432 1435 1438 1442 1444 1446 1447 1448 1449 1448 1447 1446 1444 1441 1438 1434 1430 1425
1373 1367 1363 1362 1362 1362 1361 1360 1360 1361 1364 1367 1370 1376 1380 1385 1390 1394 1399 1403 1408 1412 1416 1421 1426 1430 1434 1437 1440 1443 1444 1446 1447 1447 1447 1446 1445 1443 1441 1438 1435 1431 1426 1422
1368 1363 1363 1363 1362 1363 1363 1363 1365 1366 1370 1375 1378 1381 1386 1391 1396 1400 1404 1409 1413 1416 1420 1424 1428 1432 1436 1439 1441 1443 1444 1445 1446 1446 1445 1444 1443 1441 1438 1435 1432 1428 1424 1420
1361 1361 1361 1361 1363 1364 1366 1367 1370 1372 1376 1380 1385 1388 1392 1396 1401 1405 1409 1413 1417 1420 1424 1427 1431 1434 1437 1440 1442 1443 1444 1445 1445 1444 1443 1442 1439 1437 1434 1432 1429 1425 1420 1416
1359 1360 1361 1362 1363 1366 1368 1371 1374 1378 1382 1386 1390 1394 1398 1401 1405 1409 1413 1417 1420 1424 1427 1430 1433 1436 1439 1441 1442 1443 1444 1444 1443 1443 1441 1439 1436 1433 1430 1426 1423 1420 1416 1412
1357 1359 1360 1361 1364 1367 1370 1373 1377 1382 1386 1391 1395 1399 1402 1405 1409 1413 1417 1420 1423 1427 1430 1433 1435 1438 1440 1441 1442 1443 1443 1443 1442 1440 1438 1436 1433 1430 1427 1423 1419 1414 1410 1407
1355 1357 1358 1360 1363 1367 1371 1375 1379 1384 1389 1393 1398 1402 1405 1409 1412 1416 1420 1424 1426 1429 1432 1435 1437 1439 1441 1442 1442 1442 1442 1441 1440 1438 1436 1433 1430 1427 1423 1419 1415 1411 1406 1402
1353 1355 1357 1360 1363 1367 1372 1377 1381 1385 1391 1395 1400 1404 1407 1411 1414 1418 1422 1426 1430 1432 1435 1437 1439 1440 1441 1442 1442 1442 1441 1439 1438 1435 1433 1430 1427 1423 1420 1416 1411 1407 1404 1400
1352 1353 1354 1356 1360 1367 1373 1379 1384 1388 1393 1397 1402 1406 1410 1413 1416 1420 1424 1428 1431 1434 1436 1438 1440 1441 1441 1442 1441 1440 1439 1437 1435 1433 1430 1427 1423 1420 1416 1412 1408 1404 1399 1396
1351 1353 1355 1359 1364 1369 1375 1381 1386 1391 1396 1400 1404 1408 1412 1416 1420 1423 1427 1430 1433 1435 1438 1439 1440 1441 1441 1441 1440 1439 1437 1435 1433 1430 1427 1424 1420 1416 1412 1408 1404 1400 1396 1391
1350 1353 1356 1361 1367 1373 1378 1384 1389 1394 1399 1403 1407 1411 1415 1419 1423 1426 1429 1432 1435 1437 1438 1439 1440 1440 1440 1440 1439 1437 1435 1433 1430 1427 1423 1420 1416 1413 1409 1404 1400 1396 1392 1387
1351 1354 1358 1363 1369 1376 1382 1387 1392 1396 1402 1407 1410 1413 1417 1421 1425 1428 1431 1433 1436 1437 1439 1439 1440 1440 1439 1438 1437 1435 1432 1430 1426 1423 1420 1416 1413 1409 1405 1401 1396 1392 1388 1383
1352 1355 1360 1365 1371 1378 1385 1391 1396 1400 1404 1409 1413 1417 1420 1423 1427 1430 1433 1435 1437 1438 1439 1439 1439 1439 1438 1436 1434 1432 1429 1426 1423 1420 1416 1413 1409 1405 1401 1396 1392 1388 1384 1379
1353 1358 1362 1368 1374 1380 1387 1393 1399 1403 1407 1411 1415 1419 1422 1426 1429 1431 1433 1436 1437 1438 1438 1438 1438 1437 1436 1434 1432 1429 1426 1423 1420 1416 1413 1409 1405 1401 1397 1393 1388 1384 1380 1376
1355 1359 1365 1371 1377 1383 1389 1395 1401 1405 1410 1414 1418 1422 1425 1427 1430 1432 1434 1436 1437 1438 1438 1437 1437 1436 1434 1432 1429 1426 1423 1420 1416 1413 1409 1405 1402 1397 1393 1389 1385 1381 1377 1374
1357 1361 1367 1373 1379 1385 1391 1396 1401 1406 1411 1415 1419 1423 1426 1429 1431 1433 1435 1436 1437 1437 1437 1436 1435 1434 1431 1429 1426 1423 1420 1416 1413 1409 1405 1402 1398 1394 1391 1387 1383 1379 1375 1371
1360 1365 1371 1377 1382 1387 1392 1397 1402 1407 1412 1415 1420 1424 1427 1430 1432 1434 1435 1436 1436 1436 1436 1435 1433 1431 1428 1425 1422 1419 1416 1413 1409 1406 1402 1398 1395 1391 1388 1384 1381 1377 1373 1370
1363 1368 1373 1379 1385 1390 1394 1400 1404 1409 1413 1417 1420 1424 1427 1430 1432 1434 1435 1435 1435 1435 1434 1432 1430 1428 1425 1422 1419 1416 1412 1409 1405 1402 1398 1395 1392 1389 1385 1382 1378 1375 1371 1368